Home > Weather > Acworth > Past weeks

Flag for U.S.A. Weather for the Past 2 Weeks in Acworth, Georgia, U.S.A.

Now
28 °F

Clear.


Feels Like: 28 °F
Forecast: 27 / 49 °F
Wind: No wind

Location: Cobb County-McCollum Field Airport

Current Time: Feb 6, 2016 at 7:48:04 AM

Latest Report: Feb 6, 2016 at 6:47 AM


Visibility: 10 mi

Pressure: 30.37 "Hg

Humidity: 74%

Dew point: 21 °F

Location of AcworthLocation

Historic Weather in Acworth — Graph

°F

Acworth Temperature Yesterday

Maximum temperature yesterday: 46 °F (at 2:47 PM)
Minimum temperature yesterday: 28 °F (at 7:47 AM)
Average temperature yesterday: 39 °F

High & Low Weather Summary for the Past Weeks

 TemperatureHumidityPressure
High73 °F (Feb 2, 2:47 PM)100% (Feb 2, 8:47 AM)30.43 "Hg (Feb 2, 8:47 AM)
Low21 °F (Jan 24, 7:50 AM)22% (Jan 25, 8:47 PM)29.59 "Hg (Jan 22, 1:55 PM)
Average46 °F63%30.06 "Hg
* Reported Jan 22 6:52 AM — Feb 6 6:47 AM, Acworth, Weather by CustomWeather, © 2016

Note: Actual official high and low records may vary slightly from our data, if they occured in-between our weather recording intervals... More about our weather records

Advertising

Acworth Weather History for the Previous 24 Hours

 ConditionsComfort  
Time TempWeatherWind HumidityBarometerVisibility
6:47 AM
Sat, Feb 6
28 °FClear.No wind74%30.37 "Hg10 mi
10:47 PM
Fri, Feb 5
34 °FClear.No wind51%30.37 "Hg10 mi
9:47 PM36 °FClear.No wind41%30.37 "Hg10 mi
8:50 PM39 °FClear.No wind33%30.37 "Hg10 mi
7:47 PM39 °FClear.7 mph33%30.36 "Hg10 mi
6:47 PM43 °FClear.6 mph29%30.37 "Hg10 mi
5:55 PM45 °FSunny.8 mph27%30.35 "Hg10 mi
4:50 PM46 °FSunny.9 mph25%30.35 "Hg10 mi
3:47 PM46 °FSunny.9 mph29%30.34 "Hg10 mi
2:47 PM46 °FSunny.9 mph27%30.36 "Hg10 mi
12:51 PM43 °FSunny.10 mph31%30.40 "Hg10 mi
11:47 AM41 °FSunny.9 mph31%30.43 "Hg10 mi
10:47 AM39 °FSunny.9 mph36%30.41 "Hg10 mi
9:47 AM30 °FSunny.9 mph59%30.41 "Hg10 mi
8:47 AM30 °FSunny.7 mph55%30.38 "Hg10 mi
7:47 AM28 °FSunny.7 mph59%30.36 "Hg10 mi
Weather by CustomWeather, © 2016

See weather overviewHow to use our weather pages